| time (UTC) | temp F | wind direction | speed MPH | gust MPH | rain 1hr in | rain 24hr in | rain mn in | humidity % | barometer mb |
| 20260901033517 | 79 | 117 | 1.0 | 4.0 | 0.00 | 0.58 | 0.58 | 79 | 1014.2 |
| 20260901032516 | 79 | 212 | 1.0 | 4.0 | 0.00 | 0.58 | 0.58 | 79 | 1014.2 |
| 20260901031517 | 79 | 99 | 1.0 | 4.0 | 0.00 | 0.58 | 0.58 | 79 | 1014.3 |
| 20260901030517 | 79 | 82 | 1.0 | 4.0 | 0.00 | 0.58 | 0.58 | 79 | 1014.4 |
| 20260901025517 | 80 | 70 | 0.0 | 3.0 | 0.00 | 0.58 | 0.58 | 78 | 1014.5 |
| 20260901024518 | 80 | 113 | 0.0 | 4.0 | 0.00 | 0.58 | 0.58 | 78 | 1014.5 |
| 20260901023518 | 80 | 72 | 1.0 | 5.0 | 0.00 | 0.58 | 0.58 | 78 | 1014.5 |
| 20260901022518 | 80 | 61 | 0.0 | 3.0 | 0.00 | 0.59 | 0.58 | 79 | 1014.5 |
| 20260901021518 | 80 | 83 | 1.0 | 3.0 | 0.00 | 0.59 | 0.58 | 79 | 1014.5 |
| 20260901020518 | 80 | 57 | 1.0 | 3.0 | 0.00 | 0.61 | 0.58 | 80 | 1014.5 |
| 20260901015515 | 80 | 67 | 1.0 | 4.0 | 0.00 | 0.61 | 0.58 | 80 | 1014.5 |
| 20260901014516 | 79 | 357 | 0.0 | 3.0 | 0.00 | 0.61 | 0.58 | 82 | 1014.3 |
| 20260901013516 | 79 | 65 | 0.0 | 4.0 | 0.00 | 0.61 | 0.58 | 83 | 1014.3 |
| 20260901012516 | 79 | 65 | 0.0 | 4.0 | 0.00 | 0.61 | 0.58 | 84 | 1014.2 |
| 20260901011516 | 80 | 59 | 1.0 | 4.0 | 0.00 | 0.61 | 0.58 | 84 | 1014.1 |
| 20260901010516 | 80 | 49 | 1.0 | 4.0 | 0.00 | 0.61 | 0.58 | 83 | 1014.0 |
| 20260901005516 | 80 | 67 | 1.0 | 3.0 | 0.15 | 0.61 | 0.58 | 83 | 1013.9 |
| 20260901004516 | 80 | 63 | 1.0 | 5.0 | 0.45 | 0.61 | 0.58 | 83 | 1013.7 |
| 20260901003517 | 80 | 65 | 1.0 | 5.0 | 0.45 | 0.61 | 0.58 | 84 | 1013.7 |
| 20260901002517 | 79 | 65 | 2.0 | 8.0 | 0.45 | 0.61 | 0.58 | 82 | 1013.6 |
| 20260901001517 | 79 | 320 | 3.0 | 7.0 | 0.45 | 0.61 | 0.58 | 86 | 1013.9 |
| 20260901000518 | 82 | 66 | 3.0 | 7.0 | 0.45 | 0.61 | 0.58 | 80 | 1014.3 |
| 20260831235518 | 87 | 312 | 4.0 | 8.0 | 0.30 | 0.46 | 0.43 | 70 | 1015.9 |
| 20260831234518 | 87 | 278 | 1.0 | 3.0 | 0.00 | 0.16 | 0.13 | 65 | 1014.7 |
| 20260831233518 | 88 | 246 | 0.0 | 2.0 | 0.00 | 0.16 | 0.13 | 64 | 1014.1 |
| 20260831232518 | 89 | 122 | 0.0 | 1.0 | 0.00 | 0.16 | 0.13 | 62 | 1014.1 |
| 20260831231518 | 89 | 73 | 0.0 | 3.0 | 0.00 | 0.18 | 0.13 | 61 | 1013.9 |
| 20260831230518 | 90 | 286 | 0.0 | 2.0 | 0.00 | 0.18 | 0.13 | 60 | 1013.9 |
| 20260831225555 | 90 | 270 | 0.0 | 3.0 | 0.00 | 0.18 | 0.13 | 59 | 1014.0 |
| 20260831224516 | 91 | 267 | 1.0 | 4.0 | 0.00 | 0.18 | 0.13 | 58 | 1014.0 |
| 20260831223516 | 93 | 263 | 1.0 | 5.0 | 0.00 | 0.18 | 0.13 | 55 | 1013.7 |
| 20260831222516 | 93 | 270 | 1.0 | 4.0 | 0.00 | 0.18 | 0.13 | 54 | 1013.5 |
| 20260831221516 | 94 | 263 | 1.0 | 5.0 | 0.00 | 0.18 | 0.13 | 54 | 1013.4 |
| 20260831220516 | 94 | 263 | 1.0 | 5.0 | 0.00 | 0.18 | 0.13 | 52 | 1013.4 |
| 20260831215516 | 94 | 268 | 2.0 | 5.0 | 0.00 | 0.18 | 0.13 | 51 | 1013.4 |
| 20260831214517 | 94 | 287 | 2.0 | 5.0 | 0.00 | 0.18 | 0.13 | 50 | 1013.5 |
| 20260831213517 | 93 | 278 | 3.0 | 7.0 | 0.00 | 0.18 | 0.13 | 51 | 1013.5 |
| 20260831212517 | 94 | 284 | 2.0 | 7.0 | 0.00 | 0.18 | 0.13 | 51 | 1013.6 |
| 20260831211517 | 94 | 282 | 2.0 | 6.0 | 0.00 | 0.18 | 0.13 | 51 | 1013.7 |
| 20260831210518 | 93 | 285 | 4.0 | 8.0 | 0.00 | 0.18 | 0.13 | 51 | 1013.6 |
| 20260831205517 | 93 | 270 | 2.0 | 6.0 | 0.00 | 0.18 | 0.13 | 52 | 1013.6 |
| 20260831204518 | 93 | 281 | 3.0 | 9.0 | 0.00 | 0.18 | 0.13 | 53 | 1013.6 |
| 20260831203518 | 93 | 274 | 3.0 | 8.0 | 0.00 | 0.18 | 0.13 | 51 | 1013.4 |
| 20260831202618 | 94 | 274 | 3.0 | 5.0 | 0.00 | 0.18 | 0.13 | 50 | 1013.3 |
| 20260831201518 | 93 | 278 | 2.0 | 7.0 | 0.00 | 0.18 | 0.13 | 50 | 1013.2 |
| 20260831200516 | 93 | 278 | 2.0 | 6.0 | 0.00 | 0.18 | 0.13 | 50 | 1013.4 |
| 20260831195536 | 93 | 279 | 2.0 | 8.0 | 0.00 | 0.18 | 0.13 | 49 | 1013.6 |
| 20260831194515 | 93 | 270 | 2.0 | 7.0 | 0.00 | 0.18 | 0.13 | 49 | 1013.6 |
| 20260831193516 | 92 | 268 | 3.0 | 8.0 | 0.00 | 0.18 | 0.13 | 49 | 1013.6 |
| 20260831192516 | 92 | 279 | 3.0 | 7.0 | 0.00 | 0.20 | 0.13 | 50 | 1013.7 |
| 20260831191517 | 92 | 271 | 1.0 | 5.0 | 0.00 | 0.20 | 0.13 | 51 | 1013.8 |
| 20260831190517 | 91 | 271 | 2.0 | 5.0 | 0.00 | 0.20 | 0.13 | 52 | 1013.9 |
| 20260831185517 | 91 | 268 | 2.0 | 6.0 | 0.00 | 0.20 | 0.13 | 52 | 1013.9 |
| 20260831184517 | 90 | 262 | 2.0 | 8.0 | 0.00 | 0.20 | 0.13 | 51 | 1013.9 |
| 20260831183517 | 90 | 275 | 2.0 | 6.0 | 0.00 | 0.20 | 0.13 | 53 | 1013.9 |
| 20260831182517 | 89 | 258 | 2.0 | 6.0 | 0.00 | 0.20 | 0.13 | 55 | 1014.0 |
| 20260831181518 | 88 | 236 | 1.0 | 5.0 | 0.00 | 0.20 | 0.13 | 57 | 1014.1 |
| 20260831180538 | 87 | 356 | 1.0 | 4.0 | 0.00 | 0.20 | 0.13 | 58 | 1014.2 |
| 20260831175518 | 87 | 256 | 2.0 | 6.0 | 0.00 | 0.20 | 0.13 | 58 | 1014.5 |
| 20260831174518 | 86 | 265 | 2.0 | 8.0 | 0.00 | 0.20 | 0.13 | 60 | 1014.7 |
| 20260831173515 | 84 | 232 | 1.0 | 4.0 | 0.00 | 0.20 | 0.13 | 64 | 1014.9 |
| 20260831172518 | 82 | 180 | 2.0 | 8.0 | 0.00 | 0.20 | 0.13 | 66 | 1015.1 |
| 20260831171516 | 81 | 242 | 0.0 | 3.0 | 0.00 | 0.20 | 0.13 | 69 | 1015.3 |
| 20260831170515 | 81 | 179 | 1.0 | 4.0 | 0.00 | 0.20 | 0.13 | 70 | 1015.4 |
| 20260831165537 | 80 | 75 | 0.0 | 3.0 | 0.00 | 0.20 | 0.13 | 72 | 1015.6 |
| 20260831164542 | 79 | 128 | 1.0 | 4.0 | 0.00 | 0.20 | 0.13 | 73 | 1015.7 |
| 20260831163516 | 78 | 183 | 1.0 | 4.0 | 0.00 | 0.20 | 0.13 | 74 | 1015.7 |
| 20260831162516 | 76 | 142 | 1.0 | 3.0 | 0.00 | 0.20 | 0.13 | 76 | 1015.8 |
| 20260831161521 | 75 | 151 | 0.0 | 3.0 | 0.00 | 0.20 | 0.13 | 79 | 1015.9 |
| 20260831160517 | 75 | 194 | 1.0 | 3.0 | 0.00 | 0.20 | 0.13 | 81 | 1016.1 |
| 20260831155516 | 75 | 152 | 1.0 | 3.0 | 0.04 | 0.20 | 0.13 | 80 | 1016.2 |
| 20260831154517 | 75 | 148 | 1.0 | 4.0 | 0.04 | 0.20 | 0.13 | 80 | 1016.1 |
| 20260831153517 | 75 | 140 | 2.0 | 5.0 | 0.04 | 0.21 | 0.13 | 80 | 1016.0 |
| 20260831152518 | 74 | 150 | 1.0 | 5.0 | 0.04 | 0.21 | 0.13 | 81 | 1016.0 |
| 20260831151517 | 73 | 153 | 1.0 | 4.0 | 0.04 | 0.21 | 0.13 | 82 | 1016.0 |
| 20260831150518 | 74 | 131 | 2.0 | 4.0 | 0.04 | 0.21 | 0.13 | 80 | 1016.3 |
| 20260831145518 | 74 | 130 | 2.0 | 5.0 | 0.08 | 0.17 | 0.09 | 79 | 1016.1 |
| 20260831144518 | 74 | 98 | 0.0 | 4.0 | 0.08 | 0.16 | 0.09 | 81 | 1016.3 |
| 20260831143515 | 73 | 141 | 1.0 | 5.0 | 0.08 | 0.16 | 0.09 | 82 | 1016.4 |
| 20260831142516 | 73 | 120 | 1.0 | 3.0 | 0.08 | 0.18 | 0.09 | 82 | 1016.4 |
| 20260831141515 | 72 | 111 | 1.0 | 3.0 | 0.08 | 0.18 | 0.09 | 84 | 1016.4 |
| 20260831140516 | 72 | 133 | 0.0 | 2.0 | 0.08 | 0.20 | 0.09 | 83 | 1016.0 |
| 20260831135516 | 72 | 144 | 1.0 | 4.0 | 0.00 | 0.12 | 0.01 | 80 | 1015.8 |
| 20260831134516 | 72 | 165 | 0.0 | 3.0 | 0.00 | 0.14 | 0.01 | 81 | 1016.0 |
| 20260831133516 | 73 | 129 | 1.0 | 4.0 | 0.00 | 0.14 | 0.01 | 81 | 1016.2 |
| 20260831132536 | 73 | 115 | 0.0 | 2.0 | 0.00 | 0.17 | 0.01 | 78 | 1016.2 |
| 20260831131516 | 73 | 121 | 1.0 | 3.0 | 0.00 | 0.23 | 0.01 | 78 | 1016.0 |
| 20260831130516 | 73 | 142 | 0.0 | 3.0 | 0.00 | 0.24 | 0.01 | 77 | 1015.6 |
| 20260831125557 | 72 | 136 | 0.0 | 3.0 | 0.00 | 0.24 | 0.01 | 78 | 1015.4 |
| 20260831124537 | 72 | 117 | 0.0 | 2.0 | 0.00 | 0.24 | 0.01 | 78 | 1015.4 |
| 20260831123517 | 72 | 160 | 0.0 | 4.0 | 0.00 | 0.24 | 0.01 | 78 | 1015.3 |
| 20260831122517 | 72 | 129 | 0.0 | 2.0 | 0.01 | 0.24 | 0.01 | 78 | 1015.1 |
| 20260831121517 | 72 | 223 | 0.0 | 4.0 | 0.01 | 0.24 | 0.01 | 78 | 1015.2 |
| 20260831120519 | 72 | 177 | 0.0 | 3.0 | 0.01 | 0.24 | 0.01 | 78 | 1015.1 |
| 20260831115518 | 72 | 0.0 | 0.0 | 0.01 | 0.25 | 0.01 | 79 | 1015.0 | |
| 20260831114518 | 72 | 0.0 | 0.0 | 0.01 | 0.25 | 0.01 | 79 | 1015.0 | |
| 20260831113518 | 72 | 261 | 1.0 | 4.0 | 0.00 | 0.25 | 0.00 | 77 | 1015.1 |
| 20260831112516 | 72 | 288 | 1.0 | 3.0 | 0.00 | 0.24 | 0.00 | 77 | 1015.0 |
| 20260831111616 | 72 | 226 | 0.0 | 3.0 | 0.00 | 0.24 | 0.00 | 76 | 1014.8 |
| 20260831110516 | 73 | 270 | 0.0 | 3.0 | 0.00 | 0.24 | 0.00 | 75 | 1014.7 |
| 20260831105516 | 73 | 209 | 0.0 | 2.0 | 0.00 | 0.35 | 0.00 | 74 | 1014.7 |
| 20260831104516 | 73 | 264 | 0.0 | 3.0 | 0.00 | 0.36 | 0.00 | 74 | 1014.6 |
| 20260831103517 | 72 | 224 | 0.0 | 4.0 | 0.00 | 0.36 | 0.00 | 75 | 1014.6 |
| 20260831102536 | 72 | 145 | 0.0 | 2.0 | 0.00 | 0.36 | 0.00 | 76 | 1014.6 |
| 20260831101517 | 72 | 221 | 0.0 | 3.0 | 0.00 | 0.36 | 0.00 | 77 | 1014.6 |
| 20260831100517 | 72 | 154 | 0.0 | 1.0 | 0.00 | 0.36 | 0.00 | 76 | 1014.5 |
| 20260831095517 | 72 | 183 | 0.0 | 2.0 | 0.00 | 0.36 | 0.00 | 76 | 1014.6 |
| 20260831094517 | 72 | 204 | 0.0 | 2.0 | 0.00 | 0.36 | 0.00 | 77 | 1014.7 |
| 20260831093517 | 72 | 0.0 | 0.0 | 0.00 | 0.36 | 0.00 | 77 | 1014.6 | |
| 20260831092518 | 73 | 208 | 0.0 | 2.0 | 0.00 | 0.36 | 0.00 | 77 | 1014.7 |
| 20260831091518 | 73 | 157 | 0.0 | 3.0 | 0.00 | 0.36 | 0.00 | 77 | 1014.8 |
| 20260831090517 | 73 | 0.0 | 0.0 | 0.00 | 0.36 | 0.00 | 77 | 1014.8 | |
| 20260831085518 | 73 | 0.0 | 0.0 | 0.00 | 0.36 | 0.00 | 77 | 1014.8 | |
| 20260831084518 | 73 | 119 | 0.0 | 3.0 | 0.00 | 0.36 | 0.00 | 78 | 1014.7 |
| 20260831083535 | 73 | 129 | 0.0 | 2.0 | 0.00 | 0.36 | 0.00 | 78 | 1014.7 |
| 20260831082555 | 73 | 165 | 0.0 | 2.0 | 0.00 | 0.36 | 0.00 | 79 | 1014.7 |
| 20260831081516 | 73 | 266 | 0.0 | 3.0 | 0.00 | 0.36 | 0.00 | 79 | 1014.7 |
| 20260831080516 | 73 | 125 | 0.0 | 4.0 | 0.00 | 0.36 | 0.00 | 80 | 1014.7 |
| 20260831075516 | 73 | 121 | 0.0 | 2.0 | 0.00 | 0.36 | 0.00 | 80 | 1014.8 |
| 20260831074517 | 73 | 121 | 0.0 | 2.0 | 0.00 | 0.36 | 0.00 | 80 | 1014.7 |
| 20260831073537 | 73 | 66 | 0.0 | 1.0 | 0.00 | 0.36 | 0.00 | 81 | 1014.8 |
| 20260831072517 | 73 | 0.0 | 0.0 | 0.00 | 0.36 | 0.00 | 81 | 1014.9 | |
| 20260831071516 | 73 | 129 | 0.0 | 3.0 | 0.00 | 0.36 | 0.00 | 81 | 1014.8 |
| 20260831070517 | 73 | 123 | 0.0 | 3.0 | 0.00 | 0.36 | 0.00 | 80 | 1014.8 |
| 20260831065517 | 74 | 121 | 0.0 | 2.0 | 0.00 | 0.36 | 0.00 | 81 | 1014.8 |
| 20260831064517 | 74 | 112 | 0.0 | 3.0 | 0.00 | 0.36 | 0.00 | 80 | 1014.8 |
| 20260831063538 | 74 | 105 | 0.0 | 3.0 | 0.00 | 0.36 | 0.00 | 79 | 1014.9 |
| 20260831062517 | 74 | 59 | 0.0 | 2.0 | 0.00 | 0.36 | 0.00 | 79 | 1014.9 |
| 20260831061517 | 75 | 171 | 0.0 | 3.0 | 0.00 | 0.36 | 0.00 | 79 | 1014.8 |
| 20260831060518 | 75 | 153 | 0.0 | 4.0 | 0.00 | 0.36 | 0.00 | 78 | 1014.7 |
| 20260831055519 | 75 | 208 | 0.0 | 3.0 | 0.00 | 0.36 | 0.00 | 78 | 1014.6 |
| 20260831054518 | 75 | 177 | 0.0 | 2.0 | 0.00 | 0.36 | 0.00 | 78 | 1014.6 |
| 20260831053515 | 75 | 108 | 0.0 | 3.0 | 0.00 | 0.36 | 0.00 | 78 | 1014.9 |
| 20260831052515 | 75 | 81 | 0.0 | 1.0 | 0.00 | 0.36 | 0.00 | 78 | 1015.0 |
| 20260831051516 | 75 | 180 | 0.0 | 2.0 | 0.00 | 0.36 | 0.00 | 79 | 1015.0 |
| 20260831050516 | 75 | 79 | 0.0 | 2.0 | 0.00 | 0.36 | 0.00 | 79 | 1015.0 |
| 20260831045516 | 75 | 190 | 0.0 | 2.0 | 0.00 | 0.36 | 0.36 | 80 | 1014.9 |
| 20260831044516 | 76 | 115 | 0.0 | 1.0 | 0.00 | 0.36 | 0.36 | 80 | 1015.0 |
| 20260831043516 | 76 | 125 | 0.0 | 3.0 | 0.00 | 0.36 | 0.36 | 80 | 1015.2 |
| 20260831042517 | 75 | 228 | 0.0 | 2.0 | 0.00 | 0.36 | 0.36 | 81 | 1015.2 |
| 20260831041557 | 75 | 202 | 0.0 | 3.0 | 0.00 | 0.36 | 0.36 | 83 | 1015.3 |
| 20260831040517 | 75 | 208 | 0.0 | 3.0 | 0.00 | 0.36 | 0.36 | 84 | 1015.5 |
| 20260831035517 | 75 | 162 | 0.0 | 2.0 | 0.00 | 0.36 | 0.36 | 86 | 1015.7 |
| 20260831034518 | 75 | 0.0 | 0.0 | 0.00 | 0.36 | 0.36 | 87 | 1015.6 |